Time,TemperatureF,DewpointF,PressureIn,WindDirection,WindDirectionDegrees,WindSpeedMPH,WindSpeedGustMPH,Humidity,HourlyPrecipIn,Conditions,Clouds,dailyrainin,SoftwareType,DateUTC
2013-09-18 00:05:00,63.7,60.1,30.21,SE,125,0.0,9.0,88,0.00,,,0.00,Wunderground v.1.15,2013-09-18 04:05:00,
2013-09-18 00:10:00,63.6,60.0,30.21,SE,125,0.0,9.0,88,0.00,,,0.00,Wunderground v.1.15,2013-09-18 04:10:00,
2013-09-18 00:15:00,63.5,59.9,30.21,SE,125,0.0,9.0,88,0.00,,,0.00,Wunderground v.1.15,2013-09-18 04:15:00,
2013-09-18 00:20:00,63.5,59.9,30.21,SE,125,0.0,9.0,88,0.00,,,0.00,Wunderground v.1.15,2013-09-18 04:20:00,
2013-09-18 00:30:00,63.6,60.0,30.21,SE,125,0.0,9.0,88,0.00,,,0.00,Wunderground v.1.15,2013-09-18 04:30:00,
2013-09-18 00:35:00,63.7,60.1,30.20,SE,125,0.0,9.0,88,0.00,,,0.00,Wunderground v.1.15,2013-09-18 04:35:00,
2013-09-18 00:40:00,63.7,60.1,30.20,SE,125,0.0,9.0,88,0.00,,,0.00,Wunderground v.1.15,2013-09-18 04:40:00,
2013-09-18 00:45:00,63.5,59.9,30.20,SE,125,0.0,9.0,88,0.00,,,0.00,Wunderground v.1.15,2013-09-18 04:45:00,
2013-09-18 00:50:00,63.4,59.8,30.20,SE,125,0.0,9.0,88,0.00,,,0.00,Wunderground v.1.15,2013-09-18 04:50:00,
2013-09-18 00:55:00,63.3,60.0,30.20,SE,125,0.0,9.0,89,0.00,,,0.00,Wunderground v.1.15,2013-09-18 04:55:00,
2013-09-18 01:05:00,63.1,59.8,30.20,SE,125,0.0,9.0,89,0.00,,,0.00,Wunderground v.1.15,2013-09-18 05:05:00,
2013-09-18 01:10:00,63.0,59.7,30.20,SE,125,0.0,9.0,89,0.00,,,0.00,Wunderground v.1.15,2013-09-18 05:10:00,
2013-09-18 01:15:00,62.9,59.6,30.20,SE,125,0.0,9.0,89,0.00,,,0.00,Wunderground v.1.15,2013-09-18 05:15:00,
2013-09-18 01:20:00,62.7,59.4,30.20,SE,125,0.0,9.0,89,0.00,,,0.00,Wunderground v.1.15,2013-09-18 05:20:00,
2013-09-18 01:30:00,62.2,59.2,30.20,SE,125,0.0,9.0,90,0.00,,,0.00,Wunderground v.1.15,2013-09-18 05:30:00,
2013-09-18 01:35:00,62.1,59.1,30.20,SE,125,0.0,9.0,90,0.00,,,0.00,Wunderground v.1.15,2013-09-18 05:35:00,
2013-09-18 01:40:00,61.9,58.9,30.20,SE,125,0.0,9.0,90,0.00,,,0.00,Wunderground v.1.15,2013-09-18 05:40:00,
2013-09-18 01:45:00,61.7,59.0,30.20,SE,125,0.0,9.0,91,0.00,,,0.00,Wunderground v.1.15,2013-09-18 05:45:00,
2013-09-18 01:50:00,61.6,59.3,30.20,SE,125,0.0,9.0,92,0.00,,,0.00,Wunderground v.1.15,2013-09-18 05:50:00,
2013-09-18 01:55:00,61.6,59.3,30.20,SE,125,0.0,9.0,92,0.00,,,0.00,Wunderground v.1.15,2013-09-18 05:55:00,
2013-09-18 02:05:00,61.6,59.3,30.20,SE,125,0.0,9.0,92,0.00,,,0.00,Wunderground v.1.15,2013-09-18 06:05:00,
2013-09-18 02:10:00,61.6,59.6,30.20,SE,125,0.0,9.0,93,0.00,,,0.00,Wunderground v.1.15,2013-09-18 06:10:00,
2013-09-18 02:15:00,61.5,59.2,30.20,SE,125,0.0,9.0,92,0.00,,,0.00,Wunderground v.1.15,2013-09-18 06:15:00,
2013-09-18 02:20:00,61.3,59.0,30.19,SE,125,0.0,9.0,92,0.00,,,0.00,Wunderground v.1.15,2013-09-18 06:20:00,
2013-09-18 02:30:00,61.1,59.1,30.20,SE,125,0.0,9.0,93,0.00,,,0.00,Wunderground v.1.15,2013-09-18 06:30:00,
2013-09-18 02:35:00,61.0,59.0,30.20,SE,125,0.0,9.0,93,0.00,,,0.00,Wunderground v.1.15,2013-09-18 06:35:00,
2013-09-18 02:40:00,60.9,58.9,30.20,SE,125,0.0,9.0,93,0.00,,,0.00,Wunderground v.1.15,2013-09-18 06:40:00,
2013-09-18 02:45:00,60.8,58.8,30.20,SE,125,0.0,9.0,93,0.00,,,0.00,Wunderground v.1.15,2013-09-18 06:45:00,
2013-09-18 02:50:00,60.7,59.0,30.20,SE,125,0.0,9.0,94,0.00,,,0.00,Wunderground v.1.15,2013-09-18 06:50:00,
2013-09-18 02:55:00,60.7,59.0,30.20,SE,125,0.0,9.0,94,0.00,,,0.00,Wunderground v.1.15,2013-09-18 06:55:00,
2013-09-18 03:05:00,60.8,59.4,30.19,SE,125,0.0,9.0,95,0.00,,,0.00,Wunderground v.1.15,2013-09-18 07:05:00,
2013-09-18 03:10:00,60.9,59.5,30.19,SE,125,0.0,9.0,95,0.00,,,0.00,Wunderground v.1.15,2013-09-18 07:10:00,
2013-09-18 03:15:00,60.9,59.2,30.19,SE,125,0.0,9.0,94,0.00,,,0.00,Wunderground v.1.15,2013-09-18 07:15:00,
2013-09-18 03:20:00,60.8,59.1,30.19,SE,125,0.0,9.0,94,0.00,,,0.00,Wunderground v.1.15,2013-09-18 07:20:00,
2013-09-18 03:25:00,60.8,59.1,30.19,SE,125,0.0,9.0,94,0.00,,,0.00,Wunderground v.1.15,2013-09-18 07:25:00,
2013-09-18 03:30:00,60.9,59.5,30.19,SE,125,0.0,9.0,95,0.00,,,0.00,Wunderground v.1.15,2013-09-18 07:30:00,
2013-09-18 03:35:00,61.1,59.7,30.19,SE,125,0.0,9.0,95,0.00,,,0.00,Wunderground v.1.15,2013-09-18 07:35:00,
2013-09-18 03:40:00,61.2,59.8,30.19,SE,125,0.0,9.0,95,0.00,,,0.00,Wunderground v.1.15,2013-09-18 07:40:00,
2013-09-18 03:45:00,61.3,59.9,30.19,SE,125,0.0,9.0,95,0.00,,,0.00,Wunderground v.1.15,2013-09-18 07:45:00,
2013-09-18 03:50:00,61.4,60.0,30.19,SE,125,0.0,9.0,95,0.00,,,0.00,Wunderground v.1.15,2013-09-18 07:50:00,
2013-09-18 03:55:00,61.6,60.2,30.19,SE,125,0.0,9.0,95,0.00,,,0.00,Wunderground v.1.15,2013-09-18 07:55:00,
2013-09-18 04:05:00,61.7,60.0,30.19,SE,125,0.0,9.0,94,0.00,,,0.00,Wunderground v.1.15,2013-09-18 08:05:00,
2013-09-18 04:10:00,61.6,59.9,30.18,SE,125,0.0,9.0,94,0.00,,,0.00,Wunderground v.1.15,2013-09-18 08:10:00,
2013-09-18 04:15:00,61.5,59.8,30.18,SE,125,0.0,9.0,94,0.00,,,0.00,Wunderground v.1.15,2013-09-18 08:15:00,
2013-09-18 04:20:00,61.5,59.8,30.19,SE,125,0.0,9.0,94,0.00,,,0.00,Wunderground v.1.15,2013-09-18 08:20:00,
2013-09-18 04:25:00,61.5,60.1,30.19,SE,125,0.0,9.0,95,0.00,,,0.00,Wunderground v.1.15,2013-09-18 08:25:00,
2013-09-18 04:30:00,61.5,60.1,30.19,SE,125,0.0,9.0,95,0.00,,,0.00,Wunderground v.1.15,2013-09-18 08:30:00,
2013-09-18 04:35:00,61.7,60.3,30.18,SE,125,0.0,9.0,95,0.00,,,0.00,Wunderground v.1.15,2013-09-18 08:35:00,
2013-09-18 04:40:00,61.8,60.4,30.19,SE,125,0.0,9.0,95,0.00,,,0.00,Wunderground v.1.15,2013-09-18 08:40:00,
2013-09-18 04:45:00,61.9,60.5,30.18,SE,125,0.0,9.0,95,0.00,,,0.00,Wunderground v.1.15,2013-09-18 08:45:00,
2013-09-18 04:55:00,61.9,60.2,30.19,SE,126,0.0,9.0,94,0.00,,,0.00,Wunderground v.1.15,2013-09-18 08:55:00,
2013-09-18 05:05:00,61.8,60.4,30.19,SE,126,0.0,9.0,95,0.00,,,0.00,Wunderground v.1.15,2013-09-18 09:05:00,
2013-09-18 05:10:00,61.9,60.5,30.18,SE,126,0.0,9.0,95,0.00,,,0.00,Wunderground v.1.15,2013-09-18 09:10:00,
2013-09-18 05:15:00,62.0,60.6,30.19,SE,126,0.0,9.0,95,0.00,,,0.00,Wunderground v.1.15,2013-09-18 09:15:00,
2013-09-18 05:20:00,62.0,60.6,30.19,SSE,150,0.0,9.0,95,0.00,,,0.00,Wunderground v.1.15,2013-09-18 09:20:00,
2013-09-18 05:30:00,62.2,60.8,30.19,South,169,0.0,9.0,95,0.00,,,0.00,Wunderground v.1.15,2013-09-18 09:30:00,
2013-09-18 05:35:00,62.3,60.8,30.19,South,169,0.0,9.0,95,0.00,,,0.00,Wunderground v.1.15,2013-09-18 09:35:00,
2013-09-18 05:45:00,62.4,60.9,30.19,South,188,0.0,9.0,95,0.00,,,0.00,Wunderground v.1.15,2013-09-18 09:45:00,
2013-09-18 05:50:00,62.5,61.0,30.19,SSW,213,0.0,9.0,95,0.00,,,0.00,Wunderground v.1.15,2013-09-18 09:50:00,
2013-09-18 05:55:00,62.6,60.8,30.19,SSW,199,0.0,9.0,94,0.00,,,0.00,Wunderground v.1.15,2013-09-18 09:55:00,
2013-09-18 06:05:00,62.9,61.1,30.19,SSW,199,0.0,9.0,94,0.00,,,0.00,Wunderground v.1.15,2013-09-18 10:05:00,
2013-09-18 06:10:00,62.9,61.1,30.19,SSW,199,0.0,9.0,94,0.00,,,0.00,Wunderground v.1.15,2013-09-18 10:10:00,
2013-09-18 06:15:00,63.0,61.2,30.19,SSW,199,0.0,9.0,94,0.00,,,0.00,Wunderground v.1.15,2013-09-18 10:15:00,
2013-09-18 06:20:00,63.1,61.0,30.19,SSW,199,0.0,9.0,93,0.00,,,0.00,Wunderground v.1.15,2013-09-18 10:20:00,
2013-09-18 06:30:00,63.2,61.1,30.20,SSW,198,0.0,9.0,93,0.00,,,0.00,Wunderground v.1.15,2013-09-18 10:30:00,
2013-09-18 06:40:00,63.3,61.2,30.20,SSW,198,0.0,9.0,93,0.00,,,0.00,Wunderground v.1.15,2013-09-18 10:40:00,
2013-09-18 06:45:00,63.2,61.1,30.20,SSW,198,0.0,9.0,93,0.00,,,0.00,Wunderground v.1.15,2013-09-18 10:45:00,
2013-09-18 06:50:00,63.2,61.1,30.20,SSW,198,0.0,9.0,93,0.00,,,0.00,Wunderground v.1.15,2013-09-18 10:50:00,
2013-09-18 07:05:00,63.2,61.1,30.20,SSW,198,0.0,9.0,93,0.00,,,0.00,Wunderground v.1.15,2013-09-18 11:05:00,
2013-09-18 07:10:00,63.2,61.1,30.20,SSW,198,0.0,9.0,93,0.00,,,0.01,Wunderground v.1.15,2013-09-18 11:10:00,
2013-09-18 07:15:00,63.1,61.3,30.20,SSW,198,0.0,9.0,94,0.00,,,0.01,Wunderground v.1.15,2013-09-18 11:15:00,
2013-09-18 07:25:00,62.8,61.3,30.21,SSW,198,0.0,9.0,95,0.00,,,0.01,Wunderground v.1.15,2013-09-18 11:25:00,
2013-09-18 07:35:00,62.7,61.2,30.21,SSW,198,0.0,9.0,95,0.00,,,0.01,Wunderground v.1.15,2013-09-18 11:35:00,
2013-09-18 07:40:00,62.7,61.2,30.21,SSW,198,0.0,9.0,95,0.00,,,0.01,Wunderground v.1.15,2013-09-18 11:40:00,
2013-09-18 07:45:00,62.7,61.2,30.21,SSW,198,0.0,9.0,95,0.00,,,0.01,Wunderground v.1.15,2013-09-18 11:45:00,
2013-09-18 07:50:00,62.8,61.3,30.22,SSW,198,0.0,9.0,95,0.00,,,0.01,Wunderground v.1.15,2013-09-18 11:50:00,
2013-09-18 07:55:00,62.8,61.3,30.22,SSW,198,0.0,9.0,95,0.00,,,0.01,Wunderground v.1.15,2013-09-18 11:55:00,
2013-09-18 08:05:00,62.8,61.3,30.22,SSW,198,0.0,9.0,95,0.00,,,0.01,Wunderground v.1.15,2013-09-18 12:05:00,
2013-09-18 08:15:00,62.8,61.3,30.22,SSW,198,0.0,9.0,95,0.00,,,0.01,Wunderground v.1.15,2013-09-18 12:15:00,
2013-09-18 08:25:00,62.8,61.3,30.22,SSW,198,0.0,9.0,95,0.00,,,0.01,Wunderground v.1.15,2013-09-18 12:25:00,
2013-09-18 08:30:00,62.8,61.3,30.22,SSW,198,0.0,9.0,95,0.00,,,0.01,Wunderground v.1.15,2013-09-18 12:30:00,
2013-09-18 08:35:00,62.9,61.4,30.22,SSW,198,0.0,9.0,95,0.00,,,0.01,Wunderground v.1.15,2013-09-18 12:35:00,
2013-09-18 08:40:00,62.8,61.3,30.22,SSW,197,0.0,9.0,95,0.00,,,0.01,Wunderground v.1.15,2013-09-18 12:40:00,
2013-09-18 08:50:00,62.9,61.4,30.22,SSW,197,0.0,9.0,95,0.00,,,0.01,Wunderground v.1.15,2013-09-18 12:50:00,
2013-09-18 08:55:00,62.9,61.4,30.23,SSW,197,0.0,9.0,95,0.00,,,0.01,Wunderground v.1.15,2013-09-18 12:55:00,
2013-09-18 09:05:00,63.0,61.5,30.23,SSW,197,0.0,9.0,95,0.00,,,0.01,Wunderground v.1.15,2013-09-18 13:05:00,
2013-09-18 09:15:00,63.0,61.5,30.23,SSW,198,0.0,9.0,95,0.00,,,0.01,Wunderground v.1.15,2013-09-18 13:15:00,
2013-09-18 09:20:00,63.1,61.6,30.23,SSW,198,0.0,9.0,95,0.00,,,0.01,Wunderground v.1.15,2013-09-18 13:20:00,
2013-09-18 09:25:00,63.2,61.7,30.23,SSW,198,0.0,9.0,95,0.00,,,0.01,Wunderground v.1.15,2013-09-18 13:25:00,
2013-09-18 09:40:00,63.3,61.8,30.23,SSW,198,0.0,9.0,95,0.00,,,0.01,Wunderground v.1.15,2013-09-18 13:40:00,
2013-09-18 09:50:00,63.3,61.8,30.23,SSW,198,0.0,9.0,95,0.00,,,0.01,Wunderground v.1.15,2013-09-18 13:50:00,
2013-09-18 09:55:00,63.3,61.8,30.24,SSW,198,0.0,9.0,95,0.00,,,0.01,Wunderground v.1.15,2013-09-18 13:55:00,
2013-09-18 10:05:00,63.3,61.8,30.24,SSW,198,0.0,9.0,95,0.00,,,0.01,Wunderground v.1.15,2013-09-18 14:05:00,
2013-09-18 10:10:00,63.3,62.1,30.24,SSW,198,0.0,9.0,96,0.00,,,0.01,Wunderground v.1.15,2013-09-18 14:10:00,
2013-09-18 10:15:00,63.4,62.2,30.24,SSW,198,0.0,9.0,96,0.00,,,0.01,Wunderground v.1.15,2013-09-18 14:15:00,
2013-09-18 10:25:00,63.4,62.2,30.24,SSW,200,1.0,1.0,96,0.00,,,0.01,Wunderground v.1.15,2013-09-18 14:25:00,
2013-09-18 10:35:00,63.5,62.3,30.24,SSW,199,0.0,9.0,96,0.00,,,0.01,Wunderground v.1.15,2013-09-18 14:35:00,
2013-09-18 10:40:00,63.5,62.3,30.24,SSW,200,0.0,9.0,96,0.00,,,0.01,Wunderground v.1.15,2013-09-18 14:40:00,
2013-09-18 10:45:00,63.6,62.4,30.24,SSW,200,0.0,9.0,96,0.00,,,0.01,Wunderground v.1.15,2013-09-18 14:45:00,
2013-09-18 10:50:00,63.6,62.4,30.24,SSW,200,0.0,9.0,96,0.00,,,0.01,Wunderground v.1.15,2013-09-18 14:50:00,
2013-09-18 11:05:00,63.8,62.9,30.24,SSW,200,0.0,9.0,97,0.00,,,0.01,Wunderground v.1.15,2013-09-18 15:05:00,
2013-09-18 11:10:00,63.9,62.7,30.24,SSW,200,0.0,9.0,96,0.00,,,0.01,Wunderground v.1.15,2013-09-18 15:10:00,
2013-09-18 11:20:00,63.9,63.0,30.24,SSW,200,0.0,9.0,97,0.00,,,0.01,Wunderground v.1.15,2013-09-18 15:20:00,
2013-09-18 11:25:00,64.0,63.1,30.24,SSW,201,0.0,9.0,97,0.00,,,0.01,Wunderground v.1.15,2013-09-18 15:25:00,
2013-09-18 11:30:00,64.0,63.1,30.24,SSW,200,0.0,9.0,97,0.00,,,0.01,Wunderground v.1.15,2013-09-18 15:30:00,
2013-09-18 11:35:00,64.1,63.2,30.24,SSW,200,0.0,9.0,97,0.00,,,0.01,Wunderground v.1.15,2013-09-18 15:35:00,
2013-09-18 11:40:00,64.2,63.3,30.24,SSW,202,0.0,9.0,97,0.00,,,0.01,Wunderground v.1.15,2013-09-18 15:40:00,
2013-09-18 11:45:00,64.4,63.5,30.24,SSW,205,0.0,9.0,97,0.00,,,0.01,Wunderground v.1.15,2013-09-18 15:45:00,
2013-09-18 11:50:00,64.5,63.6,30.24,SW,227,1.0,9.0,97,0.00,,,0.01,Wunderground v.1.15,2013-09-18 15:50:00,
2013-09-18 12:05:00,65.0,63.8,30.23,SW,231,1.0,1.0,96,0.00,,,0.01,Wunderground v.1.15,2013-09-18 16:05:00,
2013-09-18 12:20:00,65.6,64.1,30.23,SSW,194,2.0,3.0,95,0.00,,,0.01,Wunderground v.1.15,2013-09-18 16:20:00,
2013-09-18 12:25:00,66.0,64.5,30.23,SW,226,1.0,9.0,95,0.00,,,0.01,Wunderground v.1.15,2013-09-18 16:25:00,
2013-09-18 12:30:00,66.3,64.5,30.23,WSW,247,2.0,9.0,94,0.00,,,0.01,Wunderground v.1.15,2013-09-18 16:30:00,
2013-09-18 12:35:00,66.7,64.6,30.23,SSW,198,3.0,3.0,93,0.00,,,0.01,Wunderground v.1.15,2013-09-18 16:35:00,
2013-09-18 12:40:00,66.7,64.3,30.23,SW,233,3.0,9.0,92,0.00,,,0.01,Wunderground v.1.15,2013-09-18 16:40:00,
2013-09-18 12:50:00,67.2,64.5,30.23,South,189,2.0,9.0,91,0.00,,,0.01,Wunderground v.1.15,2013-09-18 16:50:00,
2013-09-18 12:55:00,67.3,64.6,30.23,WSW,239,2.0,9.0,91,0.00,,,0.01,Wunderground v.1.15,2013-09-18 16:55:00,
2013-09-18 13:05:00,67.4,64.7,30.23,SW,221,2.0,2.0,91,0.00,,,0.01,Wunderground v.1.15,2013-09-18 17:05:00,
2013-09-18 13:10:00,67.4,65.0,30.23,SW,227,2.0,9.0,92,0.00,,,0.01,Wunderground v.1.15,2013-09-18 17:10:00,
2013-09-18 13:15:00,67.4,64.7,30.22,WSW,241,1.0,1.0,91,0.00,,,0.01,Wunderground v.1.15,2013-09-18 17:15:00,
2013-09-18 13:20:00,67.1,64.4,30.22,WSW,244,1.0,9.0,91,0.00,,,0.01,Wunderground v.1.15,2013-09-18 17:20:00,
2013-09-18 13:25:00,67.2,64.8,30.22,WSW,238,1.0,1.0,92,0.00,,,0.01,Wunderground v.1.15,2013-09-18 17:25:00,
2013-09-18 13:35:00,67.2,64.5,30.22,WSW,251,3.0,9.0,91,0.00,,,0.01,Wunderground v.1.15,2013-09-18 17:35:00,
2013-09-18 13:40:00,67.4,64.7,30.21,WSW,243,3.0,9.0,91,0.00,,,0.01,Wunderground v.1.15,2013-09-18 17:40:00,
2013-09-18 13:50:00,67.5,64.8,30.21,WSW,252,2.0,9.0,91,0.00,,,0.01,Wunderground v.1.15,2013-09-18 17:50:00,
2013-09-18 13:55:00,67.4,64.7,30.21,SSE,164,1.0,1.0,91,0.00,,,0.01,Wunderground v.1.15,2013-09-18 17:55:00,
2013-09-18 14:05:00,67.3,64.6,30.21,SSW,198,1.0,9.0,91,0.00,,,0.01,Wunderground v.1.15,2013-09-18 18:05:00,
2013-09-18 14:10:00,67.4,64.7,30.21,WSW,238,1.0,9.0,91,0.00,,,0.01,Wunderground v.1.15,2013-09-18 18:10:00,
2013-09-18 14:15:00,67.5,64.5,30.20,WNW,300,0.0,9.0,90,0.00,,,0.01,Wunderground v.1.15,2013-09-18 18:15:00,
2013-09-18 14:25:00,67.6,64.6,30.20,SSW,202,1.0,1.0,90,0.00,,,0.01,Wunderground v.1.15,2013-09-18 18:25:00,
2013-09-18 14:30:00,67.7,65.0,30.20,West,262,1.0,9.0,91,0.00,,,0.01,Wunderground v.1.15,2013-09-18 18:30:00,
2013-09-18 14:35:00,67.7,64.7,30.20,WSW,257,1.0,1.0,90,0.00,,,0.01,Wunderground v.1.15,2013-09-18 18:35:00,
2013-09-18 14:45:00,68.0,65.0,30.19,WSW,238,1.0,9.0,90,0.00,,,0.01,Wunderground v.1.15,2013-09-18 18:45:00,
2013-09-18 14:50:00,68.1,64.7,30.19,SW,227,2.0,9.0,89,0.00,,,0.01,Wunderground v.1.15,2013-09-18 18:50:00,
2013-09-18 15:10:00,68.1,64.7,30.19,SW,218,2.0,9.0,89,0.00,,,0.01,Wunderground v.1.15,2013-09-18 19:10:00,
2013-09-18 15:15:00,68.3,65.3,30.19,WSW,239,1.0,9.0,90,0.00,,,0.01,Wunderground v.1.15,2013-09-18 19:15:00,
2013-09-18 15:25:00,68.5,65.4,30.18,SSW,206,1.0,1.0,90,0.00,,,0.01,Wunderground v.1.15,2013-09-18 19:25:00,
2013-09-18 15:30:00,68.6,65.5,30.18,SW,230,1.0,9.0,90,0.00,,,0.01,Wunderground v.1.15,2013-09-18 19:30:00,
2013-09-18 15:35:00,68.6,65.2,30.18,SW,221,1.0,1.0,89,0.00,,,0.01,Wunderground v.1.15,2013-09-18 19:35:00,
2013-09-18 15:40:00,68.5,65.1,30.18,SW,219,1.0,9.0,89,0.00,,,0.01,Wunderground v.1.15,2013-09-18 19:40:00,
2013-09-18 15:45:00,68.5,65.1,30.18,SW,221,1.0,9.0,89,0.00,,,0.01,Wunderground v.1.15,2013-09-18 19:45:00,
2013-09-18 15:50:00,68.5,65.1,30.18,SW,220,1.0,9.0,89,0.00,,,0.01,Wunderground v.1.15,2013-09-18 19:50:00,
2013-09-18 15:55:00,68.4,65.0,30.18,SW,229,1.0,9.0,89,0.00,,,0.01,Wunderground v.1.15,2013-09-18 19:55:00,
2013-09-18 16:05:00,68.4,65.4,30.18,South,186,1.0,1.0,90,0.00,,,0.01,Wunderground v.1.15,2013-09-18 20:05:00,
2013-09-18 16:10:00,68.5,65.1,30.18,SSW,213,2.0,2.0,89,0.00,,,0.01,Wunderground v.1.15,2013-09-18 20:10:00,
2013-09-18 16:20:00,68.4,65.4,30.17,West,259,1.0,9.0,90,0.00,,,0.01,Wunderground v.1.15,2013-09-18 20:20:00,
2013-09-18 16:25:00,68.4,65.4,30.17,SW,229,1.0,1.0,90,0.00,,,0.01,Wunderground v.1.15,2013-09-18 20:25:00,
2013-09-18 16:30:00,68.4,65.4,30.17,SW,232,1.0,9.0,90,0.00,,,0.01,Wunderground v.1.15,2013-09-18 20:30:00,
2013-09-18 16:35:00,68.5,65.4,30.18,West,265,1.0,9.0,90,0.00,,,0.01,Wunderground v.1.15,2013-09-18 20:35:00,
2013-09-18 16:45:00,68.5,65.4,30.18,WSW,237,1.0,9.0,90,0.00,,,0.01,Wunderground v.1.15,2013-09-18 20:45:00,
2013-09-18 16:55:00,68.6,65.5,30.18,SW,234,1.0,1.0,90,0.00,,,0.01,Wunderground v.1.15,2013-09-18 20:55:00,
2013-09-18 17:05:00,68.8,65.7,30.18,SSW,205,1.0,1.0,90,0.00,,,0.01,Wunderground v.1.15,2013-09-18 21:05:00,
2013-09-18 17:15:00,69.0,65.9,30.17,SSW,198,0.0,9.0,90,0.00,,,0.01,Wunderground v.1.15,2013-09-18 21:15:00,
2013-09-18 17:20:00,69.1,66.0,30.17,West,269,0.0,9.0,90,0.00,,,0.01,Wunderground v.1.15,2013-09-18 21:20:00,
2013-09-18 17:30:00,69.4,66.3,30.17,WSW,243,0.0,9.0,90,0.00,,,0.01,Wunderground v.1.15,2013-09-18 21:30:00,
2013-09-18 17:35:00,69.3,65.9,30.17,WSW,256,1.0,9.0,89,0.00,,,0.01,Wunderground v.1.15,2013-09-18 21:35:00,
2013-09-18 17:40:00,69.3,66.2,30.17,SW,228,1.0,9.0,90,0.00,,,0.01,Wunderground v.1.15,2013-09-18 21:40:00,
2013-09-18 17:45:00,69.4,66.0,30.16,SSW,201,1.0,1.0,89,0.00,,,0.01,Wunderground v.1.15,2013-09-18 21:45:00,
2013-09-18 17:50:00,69.5,66.1,30.17,SSW,194,0.0,9.0,89,0.00,,,0.01,Wunderground v.1.15,2013-09-18 21:50:00,
2013-09-18 17:55:00,69.5,66.1,30.16,SSW,196,0.0,9.0,89,0.00,,,0.01,Wunderground v.1.15,2013-09-18 21:55:00,
2013-09-18 18:05:00,69.5,66.4,30.17,SSW,196,0.0,9.0,90,0.00,,,0.01,Wunderground v.1.15,2013-09-18 22:05:00,
2013-09-18 18:10:00,69.4,66.3,30.17,SSW,196,0.0,9.0,90,0.00,,,0.01,Wunderground v.1.15,2013-09-18 22:10:00,
2013-09-18 18:15:00,69.3,66.2,30.17,SSW,197,0.0,9.0,90,0.00,,,0.01,Wunderground v.1.15,2013-09-18 22:15:00,
2013-09-18 18:20:00,69.2,66.1,30.17,SSW,197,0.0,9.0,90,0.00,,,0.01,Wunderground v.1.15,2013-09-18 22:20:00,
2013-09-18 18:25:00,69.2,66.5,30.17,SSW,197,0.0,9.0,91,0.00,,,0.01,Wunderground v.1.15,2013-09-18 22:25:00,
2013-09-18 18:30:00,69.1,66.4,30.17,SSW,196,0.0,9.0,91,0.00,,,0.01,Wunderground v.1.15,2013-09-18 22:30:00,
2013-09-18 18:35:00,69.0,66.3,30.17,SSW,196,0.0,9.0,91,0.00,,,0.01,Wunderground v.1.15,2013-09-18 22:35:00,
2013-09-18 18:45:00,68.8,66.4,30.17,SSW,196,0.0,9.0,92,0.00,,,0.01,Wunderground v.1.15,2013-09-18 22:45:00,
2013-09-18 18:50:00,68.7,66.3,30.17,SSW,196,0.0,9.0,92,0.00,,,0.01,Wunderground v.1.15,2013-09-18 22:50:00,
2013-09-18 18:55:00,68.6,66.2,30.17,SSW,195,0.0,9.0,92,0.00,,,0.01,Wunderground v.1.15,2013-09-18 22:55:00,
2013-09-18 19:05:00,68.4,66.0,30.17,SW,232,0.0,9.0,92,0.00,,,0.01,Wunderground v.1.15,2013-09-18 23:05:00,
2013-09-18 19:15:00,68.2,66.1,30.17,SW,219,0.0,9.0,93,0.00,,,0.01,Wunderground v.1.15,2013-09-18 23:15:00,
2013-09-18 19:25:00,68.0,65.9,30.17,WSW,242,1.0,1.0,93,0.00,,,0.01,Wunderground v.1.15,2013-09-18 23:25:00,
2013-09-18 19:35:00,67.9,65.8,30.17,South,175,0.0,9.0,93,0.00,,,0.01,Wunderground v.1.15,2013-09-18 23:35:00,
2013-09-18 19:45:00,67.7,65.6,30.17,South,186,0.0,9.0,93,0.00,,,0.01,Wunderground v.1.15,2013-09-18 23:45:00,
2013-09-18 19:55:00,67.6,65.8,30.17,SSW,211,0.0,9.0,94,0.00,,,0.01,Wunderground v.1.15,2013-09-18 23:55:00,
2013-09-18 20:05:00,67.5,65.7,30.17,SSW,209,0.0,9.0,94,0.00,,,0.01,Wunderground v.1.15,2013-09-19 00:05:00,
2013-09-18 20:15:00,67.2,65.4,30.16,SSW,206,0.0,9.0,94,0.00,,,0.01,Wunderground v.1.15,2013-09-19 00:15:00,
2013-09-18 20:20:00,67.1,65.6,30.17,SW,218,0.0,9.0,95,0.00,,,0.01,Wunderground v.1.15,2013-09-19 00:20:00,
2013-09-18 20:25:00,67.0,65.5,30.17,SW,227,0.0,9.0,95,0.00,,,0.01,Wunderground v.1.15,2013-09-19 00:25:00,
2013-09-18 20:30:00,67.0,65.5,30.17,SW,232,0.0,9.0,95,0.00,,,0.01,Wunderground v.1.15,2013-09-19 00:30:00,
2013-09-18 20:35:00,67.0,65.5,30.17,SW,232,0.0,9.0,95,0.00,,,0.01,Wunderground v.1.15,2013-09-19 00:35:00,
2013-09-18 20:40:00,67.1,65.6,30.17,SW,232,0.0,9.0,95,0.00,,,0.01,Wunderground v.1.15,2013-09-19 00:40:00,
2013-09-18 20:45:00,67.1,65.6,30.17,SW,232,0.0,9.0,95,0.00,,,0.01,Wunderground v.1.15,2013-09-19 00:45:00,
2013-09-18 20:50:00,67.1,65.6,30.18,SW,232,0.0,9.0,95,0.00,,,0.01,Wunderground v.1.15,2013-09-19 00:50:00,
2013-09-18 20:55:00,67.1,65.6,30.18,SW,232,0.0,9.0,95,0.00,,,0.01,Wunderground v.1.15,2013-09-19 00:55:00,
2013-09-18 21:05:00,67.0,65.5,30.18,SW,232,0.0,9.0,95,0.00,,,0.01,Wunderground v.1.15,2013-09-19 01:05:00,
2013-09-18 21:10:00,67.0,65.5,30.18,SW,232,0.0,9.0,95,0.00,,,0.01,Wunderground v.1.15,2013-09-19 01:10:00,
2013-09-18 21:15:00,67.0,65.8,30.18,SW,232,0.0,9.0,96,0.00,,,0.01,Wunderground v.1.15,2013-09-19 01:15:00,
2013-09-18 21:20:00,67.0,65.8,30.18,SW,232,0.0,9.0,96,0.00,,,0.01,Wunderground v.1.15,2013-09-19 01:20:00,
2013-09-18 21:30:00,66.9,65.7,30.18,SW,232,0.0,9.0,96,0.00,,,0.01,Wunderground v.1.15,2013-09-19 01:30:00,
2013-09-18 21:35:00,66.8,65.6,30.18,South,178,0.0,9.0,96,0.00,,,0.01,Wunderground v.1.15,2013-09-19 01:35:00,
2013-09-18 21:40:00,66.9,65.7,30.18,SSW,202,0.0,9.0,96,0.00,,,0.01,Wunderground v.1.15,2013-09-19 01:40:00,
2013-09-18 21:45:00,66.9,65.7,30.18,SSW,192,0.0,9.0,96,0.00,,,0.02,Wunderground v.1.15,2013-09-19 01:45:00,
2013-09-18 21:50:00,66.9,65.7,30.18,SSW,205,0.0,9.0,96,0.00,,,0.02,Wunderground v.1.15,2013-09-19 01:50:00,
2013-09-18 21:55:00,66.9,65.7,30.18,SSW,211,0.0,9.0,96,0.00,,,0.02,Wunderground v.1.15,2013-09-19 01:55:00,
2013-09-18 22:05:00,66.7,65.5,30.18,SSW,208,1.0,9.0,96,0.00,,,0.02,Wunderground v.1.15,2013-09-19 02:05:00,
2013-09-18 22:10:00,66.7,65.5,30.18,SSW,213,1.0,9.0,96,0.00,,,0.02,Wunderground v.1.15,2013-09-19 02:10:00,
2013-09-18 22:15:00,66.7,65.5,30.18,SW,215,1.0,9.0,96,0.00,,,0.02,Wunderground v.1.15,2013-09-19 02:15:00,
2013-09-18 22:20:00,66.7,65.5,30.17,SW,218,1.0,9.0,96,0.00,,,0.02,Wunderground v.1.15,2013-09-19 02:20:00,
2013-09-18 22:25:00,66.7,65.5,30.17,SW,223,1.0,1.0,96,0.00,,,0.02,Wunderground v.1.15,2013-09-19 02:25:00,
2013-09-18 22:30:00,66.7,65.5,30.17,SSW,209,1.0,9.0,96,0.00,,,0.02,Wunderground v.1.15,2013-09-19 02:30:00,
2013-09-18 22:35:00,66.7,65.5,30.17,SSW,207,1.0,1.0,96,0.00,,,0.02,Wunderground v.1.15,2013-09-19 02:35:00,
2013-09-18 22:40:00,66.6,65.4,30.17,SW,218,0.0,9.0,96,0.00,,,0.02,Wunderground v.1.15,2013-09-19 02:40:00,
2013-09-18 22:45:00,66.6,65.4,30.18,SW,218,0.0,9.0,96,0.00,,,0.02,Wunderground v.1.15,2013-09-19 02:45:00,
2013-09-18 22:50:00,66.6,65.4,30.18,SW,223,0.0,9.0,96,0.00,,,0.02,Wunderground v.1.15,2013-09-19 02:50:00,
2013-09-18 23:05:00,66.6,65.4,30.17,South,191,0.0,9.0,96,0.00,,,0.02,Wunderground v.1.15,2013-09-19 03:05:00,
2013-09-18 23:10:00,66.6,65.4,30.17,SW,232,0.0,9.0,96,0.00,,,0.02,Wunderground v.1.15,2013-09-19 03:10:00,
2013-09-18 23:20:00,66.6,65.4,30.17,SSW,200,0.0,9.0,96,0.00,,,0.02,Wunderground v.1.15,2013-09-19 03:20:00,
2013-09-18 23:25:00,66.6,65.4,30.18,SW,215,0.0,9.0,96,0.00,,,0.02,Wunderground v.1.15,2013-09-19 03:25:00,
2013-09-18 23:30:00,66.5,65.3,30.18,WSW,237,0.0,9.0,96,0.00,,,0.02,Wunderground v.1.15,2013-09-19 03:30:00,
2013-09-18 23:35:00,66.5,65.6,30.18,WSW,237,0.0,9.0,97,0.00,,,0.02,Wunderground v.1.15,2013-09-19 03:35:00,
2013-09-18 23:45:00,66.5,65.6,30.17,SSW,211,0.0,9.0,97,0.00,,,0.02,Wunderground v.1.15,2013-09-19 03:45:00,
2013-09-18 23:55:00,66.4,65.5,30.17,SSW,211,0.0,9.0,97,0.00,,,0.02,Wunderground v.1.15,2013-09-19 03:55:00,